DELTA 1 DEB, 10314

Orbit data source: Space-Track

DELTA 1 DEB, 10314 is space debris in LEO originally from a launch on Thu, 14 Jul 1977 UTC launched from the Air Force Eastern Test Range (AFETR). Debris objects in space refer to the collection of defunct objects orbiting the Earth. Examples of debris include non-operational satellites, rocket bodies, and fragments generated from explosions, collisions, or faulty payload assembly.

Loading next visibility...
Identifier
10314, 1977-065DL
Orbit
LEO
Country
Flag of USUS
Related business
Manufacturer
Unknown
Mission
Spacecraft
Bus & Motor
Unknown
Mass
Unknown
Launch date (UTC)
1977-07-14 (49 years ago)
Launch vehicle
Unknown
Launch site
Air Force Eastern Test Range (AFETR)
Object type
Payload
Rocket body
Debris
Shape & HBR
Unknown shape, 0.1 m
Radar Cross Section
Small (<0.1 m²)

Expand to show TLE details & history
Last TLE update: 11 hours ago

TLE from 11 hours ago
0 DELTA 1 DEB
1 10314U 77065DL  26133.21384470  .00001140  00000-0  36196-3 0  9992
2 10314  28.7767 119.6571 0632584  81.8250  14.9214 13.59477999354578
Epoch: 2026-05-13T05:07Z
TLE epoch observation values (Epoch: 2026-05-13T05:07:56.182Z)
Latitude
28.54229°
Longitude
-88.31755°
Altitude
585.595 km
Speed
7.799 km/s
True Right ascension
14h 38m 34s
True Declination
28° 23' 41"
Sunlit
Object was in full shadow at epoch
Visualization orbit readout
Latitude
Unknown
Longitude
Unknown
Altitude
Unknown
Speed
Unknown
Apparent Right ascension
Unknown
Apparent Declination
Unknown
Sunlit
N/A
Visualization observer readout
Local Sidereal Time
00:17:02
Azimuth
Unknown
Elevation
Unknown
Doppler factor
Unknown
Orbital elements
Apogee altitude
1,510.848 km
Perigee altitude
572.14 km
Semi-major axis
7,419.631 km
Eccentricity
0.06326
Inclination
28.7767°
RAAN
119.6571°
Arg. of periapsis
81.825°
True anomaly
16.94137°
Mean anomaly
14.9214°
Eccentric anomaly
15.91528°
Mean motion
3.39602 °/min
Orbital period
106.01 mins
BSTAR
0.00036196
Loading maneuver chart data...
Computing Atmospheric mass density...
Loading historical data...
Loading historical data...
Loading historical data...
Loading historical data...
Loading historical data...
Loading historical data...
Loading historical data...

Documentation

Showing up to 5 results
|